User: anonymous   Login
Location: Unspecified
(0.0000°N, 0.0000°E)
Time: 04:30:47
(UTC+00:00)
Language:

STARLINK-31711 - Orbit

View from above orbital plane
View from above orbital plane
View from above satellite
View from above satellite

Ground track
Ground track

The orbit is defined by the following mean orbital elements,

1 59438U          26145.64479749 +.00000000 +00000-0 +15135-3 0 00008
2 59438  53.1616 284.0803 0000751  77.7958 282.3127 15.30190876    09
Epoch (UTC): 25 May 2026 15:28:30
Eccentricity: 0.0000751
inclination: 53.1616°
perigee height: 475 km
apogee height: 476 km
right ascension of ascending node: 284.0803°
argument of perigee: 77.7958°
revolutions per day: 15.30190876
mean anomaly at epoch: 282.3127°

The dashed part of the orbit path shows where the satellite is in the earth's shadow,  

DLR